Simultaneous Nadir Overpasses (SNOs) Predictions

Prediction of SNOs between GOES-16 and AQUA Satellite Orbit:

Table of predicted SNOs for the next 14.0 days since TLE Epoch: 9/11/2021
Index Date Time (GOES-16) GOES-16 Lat,Lon AQUA Lat,Lon Distance(km) Time Diff (sec)
1 09/12/2021 06:38:18 -0.13, -75.19 -0.10, -75.38 21.67 80
2 09/14/2021 06:23:27 -0.13, -75.17 -0.74, -72.43 312.11 80
3 09/14/2021 18:44:51 0.13, -75.16 -0.38, -77.61 279.38 80
4 09/16/2021 18:35:20 0.14, -75.14 0.27, -74.66 55.14 80
5 09/18/2021 18:23:08 0.15, -75.13 0.87, -71.70 390.47 80
6 09/19/2021 06:44:23 -0.14, -75.14 0.19, -76.86 195.16 80
7 09/21/2021 06:29:32 -0.15, -75.14 -0.41, -73.90 141.58 80
8 09/21/2021 18:53:35 0.14, -75.14 -0.70, -79.09 449.12 80
9 09/23/2021 06:17:20 -0.15, -75.15 -1.02, -70.93 479.07 80
10 09/23/2021 18:41:23 0.14, -75.15 -0.08, -76.12 111.42 80
